Location: Betzi
(47.2343°N, 9.5260°E)
Time: 23:57:25
(UTC+00:00)

Cosmos 1709 Rocket - Pass Details

Date: 27 May 2022
Orbit: 947 x 1002 km, 82.9° (Epoch: 26 June)

Event Time Altitude Azimuth Distance (km) Brightness Sun altitude
Rises 00:07:59 0° 351° (N) 3,647 8.2 -20.6°
Reaches altitude 10° 00:10:30 10° 351° (N) 2,692 7.3 -20.5°
Maximum altitude 00:16:39 90° 62° (ENE) 956 3.9 -20.3°
Enters shadow 00:19:32 34° 173° (S) 1,516 4.5 -20.2°
